Powrót do katalogu

STARLINK-6038

AktywnyŁącznośćSSO
NORAD 56317·PAYLOAD·🇺🇸 United States

Wystrzelony Apr 27, 2023 z Vandenberg Space Force Base

Loading…

Następne Przeloty (najbliższe 24 godziny)

TLE

ŚwieżeSource: CelesTrak SupGP

Epoka: Sep 14, 2026, 20:44 UTC

1 56317C 23058A   26257.86437500  .00059985  00000+0  18621-2 0  2577
2 56317  97.2847 254.6901 0001585  88.5445 171.3028 15.33407441    16

Śledź STARLINK-6038 w czasie rzeczywistym z AllMySat

Download on the App Store